Location: L�beck
(53.8752°N, 10.6787°E)
Time: 17:12:28
(UTC+01:00)

ISS - Pass Details

Date: 11 November 2017
Orbit: 402 x 407 km, 51.6° (Epoch: 20 November)

Event Time Altitude Azimuth Distance (km) Brightness Sun altitude
Exits shadow 06:42:44 - 266° (W) 1,496 -1.5 -8.1°
Reaches altitude 10° 06:42:51 10° 265° (W) 1,458 -1.6 -8.1°
Maximum altitude 06:45:39 27° 206° (SSW) 822 -2.3 -7.7°
Drops below altitude 10° 06:48:27 10° 147° (SSE) 1,453 -0.1 -7.3°
Sets 06:50:42 0° 134° (SE) 2,310 1.4 -7.0°
